sat.trackr.live / text

‹ back to catalog

FLOCK 4H-1

NORAD 66704 · 2025-276AQ

PAYLOAD ACTIVE UNKNOWN

§ Identity

Operator
Country
US
Launch date
2025-11-28
Launch site
AFWTR
Launch vehicle
Mass (kg)
RCS (m²)

Purposes: earth_obs

External: N2YO · Heavens-Above · Gunter

§ Orbital elements

Epoch: 2026-09-19T04:32:22.588512Z

Period
94.63 min
Inclination
97.4061°
Eccentricity
0.0001556
Mean motion
15.21671634 rev/d
Perigee alt
499.7 km
Apogee alt
501.9 km
Semi-major
6,878.9 km
B*
1.9076e-4
RAAN
334.4128°
Arg perigee
20.7064°
Mean anomaly
339.4235°
Rev number
4,472

§ Raw data

FLOCK 4H-11 66704U 25276AQ  26262.18915033  .00004244  00000+0  19076-3 0  99922 66704  97.4061 334.4128 0001556  20.7064 339.4235 15.21671634 44725

JSON: /api/v1/satellites/66704 · /tle

For live sub-satellite position, see the globe view (requires WebGL).

§ Visibility from observer

Set your observer location to see the next 7 days of passes ≥ 10°. The values pass through the URL so the page stays shareable.

No JS? Fill the form by hand. The geolocation button needs JavaScript.